GFSNE_925_spd_273.txt.gz
Wind_Speed
7 8 8 9 11 9 13 13 6 2 3 10 9 14 12 7 6 3 1 3 5 7 8 12 20 22 22 20 21 23 23 26 28 26 24 27 27 30
7 9 11 10 11 11 11 11 11 6 2 10 8 11 9 3 5 5 3 3 5 12 13 13 14 14 15 16 17 19 21 22 24 25 24 21 22 21
7 6 8 11 10 11 13 15 14 12 4 15 16 17 17 12 7 4 5 6 7 12 11 13 11 10 10 14 16 17 18 18 19 19 18 15 17 22
5 5 6 7 9 10 12 15 13 12 11 8 12 16 18 14 10 8 6 10 10 8 11 7 10 8 8 9 13 13 14 15 14 15 17 15 13 17
6 6 5 4 9 11 12 13 14 14 13 12 14 17 12 14 11 6 7 10 16 8 11 13 10 9 7 6 6 9 10 10 11 12 13 16 17 17
8 9 6 6 8 10 9 9 12 13 14 15 16 16 13 14 9 14 12 14 13 14 12 1 12 13 8 7 6 5 7 8 8 10 12 17 21 22
3 7 9 8 10 4 7 8 10 10 11 12 12 11 12 11 12 13 10 13 6 16 14 4 1 3 8 10 7 3 4 5 8 8 9 9 9 10
3 5 10 13 7 3 5 7 8 11 11 8 6 9 7 7 9 11 10 8 5 6 14 6 3 3 3 2 2 1 1 2 2 1 0 1 2 4
7 5 10 6 4 4 8 11 7 7 9 11 10 8 6 6 9 13 12 10 9 15 9 3 3 2 4 3 3 3 5 7 7 7 7 6 6 7
11 13 10 7 8 9 10 11 5 5 9 11 11 8 11 12 10 9 11 11 12 4 1 0 3 4 3 3 4 5 5 5 6 7 7 6 8 7
15 12 9 11 7 8 9 10 8 8 6 5 7 10 11 11 8 6 5 6 5 3 6 3 5 0 7 4 6 4 4 3 1 2 3 5 8 10
9 11 6 11 8 7 9 9 10 9 11 11 12 14 16 17 13 7 4 4 4 1 6 5 4 6 1 6 5 6 7 6 6 4 4 3 3 9
10 10 5 2 5 8 10 11 10 10 12 14 15 16 19 20 16 11 5 4 5 1 4 5 3 4 2 1 1 6 9 7 4 5 7 6 2 5
8 6 3 5 11 14 14 11 10 11 13 12 12 16 17 7 7 12 6 5 3 6 6 4 2 2 2 3 1 5 2 1 3 5 3 2 2 2
4 4 8 12 14 14 11 11 11 14 12 10 12 11 8 5 7 4 3 4 8 9 8 6 4 4 6 4 4 5 6 3 3 4 3 2 5 9
7 8 8 11 14 18 18 18 16 13 13 12 11 12 6 7 8 8 7 9 7 10 14 14 11 7 2 6 8 10 8 4 5 3 4 9 10 12
12 11 13 15 17 17 20 22 20 18 18 18 19 16 10 10 10 9 10 11 9 11 12 12 18 15 11 9 10 14 11 9 4 4 10 14 14 10
15 16 16 16 19 21 19 21 18 19 22 26 24 19 13 12 11 12 14 15 15 13 12 12 17 18 18 17 16 20 17 9 5 10 11 12 13 10
17 18 19 19 21 22 21 21 16 11 9 9 17 15 14 14 13 13 13 14 13 14 16 17 13 21 5 4 11 9 12 13 14 18 13 15 18 19
19 21 23 25 24 24 25 26 25 17 13 13 13 15 17 17 17 18 17 16 15 19 21 20 19 17 15 8 9 11 13 18 20 17 19 19 20 21
14 18 19 21 27 29 28 29 29 25 20 20 19 18 15 15 18 19 20 20 19 18 17 17 16 16 19 14 7 13 17 17 19 22 21 20 22 22
11 9 10 8 8 10 10 8 5 5 7 11 15 20 21 22 23 22 22 21 19 19 19 19 18 21 17 18 21 26 25 24 24 26 24 24 22 6
10 10 10 12 13 12 13 12 11 8 10 13 18 22 20 16 17 29 29 26 24 24 23 20 17 19 22 22 26 28 29 28 26 18 15 18 21 24

GFSNE_925_spd_276.txt.gz
Wind_Speed
5 5 4 5 5 3 4 4 2 1 2 7 3 7 3 5 6 8 9 10 14 13 10 9 15 20 23 22 23 24 25 26 26 27 26 27 30 32
5 6 7 5 6 8 9 7 5 3 1 1 2 6 6 7 8 10 11 10 10 14 12 12 13 13 15 16 17 17 17 19 22 23 24 25 26 27
5 4 4 3 5 7 9 9 11 6 2 1 5 6 7 3 9 10 9 8 10 11 14 14 16 13 11 11 13 14 15 17 19 19 21 21 20 20
4 4 5 5 7 8 8 8 10 10 5 3 5 9 7 11 4 10 3 2 6 10 11 9 10 12 10 8 9 11 13 15 16 16 17 18 18 19
5 4 3 3 6 8 7 5 7 8 7 4 4 8 5 10 9 7 4 2 5 6 3 13 12 13 9 9 9 9 11 12 13 14 14 14 16 15
4 3 3 3 4 5 6 7 7 6 6 5 3 5 6 9 8 11 10 9 9 6 4 3 11 12 11 9 9 8 7 8 9 10 11 13 16 19
2 3 5 5 3 1 3 6 6 5 5 5 3 3 3 5 9 10 9 8 2 10 8 2 1 5 8 12 11 8 6 5 6 7 8 8 9 9
2 1 3 3 1 1 3 6 6 6 8 4 2 2 3 3 5 8 10 7 5 6 8 3 0 2 3 3 2 2 2 2 3 3 3 3 2 2
2 3 5 3 2 3 4 7 4 2 4 6 6 4 4 5 8 9 8 7 6 10 7 2 5 3 4 4 4 4 5 7 7 8 8 7 6 6
5 8 9 9 4 3 4 8 3 4 4 5 7 9 8 8 7 7 8 9 7 2 3 2 2 5 6 5 6 8 8 7 6 6 6 7 9 9
3 7 4 10 6 3 6 9 10 7 5 6 5 6 9 9 9 7 4 5 3 3 4 2 2 1 6 6 7 7 7 6 5 3 3 4 6 9
5 4 4 5 7 5 8 10 12 10 9 11 10 12 13 14 10 10 7 2 2 3 3 5 2 3 2 4 4 9 9 8 6 5 3 2 0 5
5 5 3 1 3 5 10 12 11 10 9 11 12 9 11 12 13 12 12 7 4 5 7 5 3 3 2 2 1 1 7 8 6 5 6 6 6 1
5 4 4 4 5 9 11 10 9 9 11 11 9 9 13 11 3 10 10 8 8 6 5 6 3 4 3 2 5 1 2 3 3 3 3 5 6 3
8 5 4 5 7 11 11 11 11 12 11 12 10 7 5 2 3 4 8 10 9 9 8 7 6 5 6 6 4 4 2 3 2 5 6 5 2 3
13 10 9 10 11 13 14 13 14 17 18 15 13 11 8 5 10 10 10 11 10 9 9 9 12 11 8 8 8 9 6 4 2 6 3 1 5 8
14 15 14 14 15 15 13 15 17 18 17 21 19 18 17 13 11 9 8 10 12 13 11 10 10 15 15 13 9 10 10 8 6 6 4 8 8 7
15 17 18 17 17 18 18 18 17 17 17 19 22 23 22 20 17 12 11 12 13 17 15 13 11 9 15 19 20 19 17 12 11 10 8 8 10 7
15 16 18 17 20 20 19 19 20 21 19 17 19 17 18 20 19 15 13 13 12 13 17 17 16 12 4 4 18 13 14 12 14 16 16 15 14 11
13 14 15 17 17 16 18 19 20 21 19 18 20 18 18 20 20 18 17 16 16 16 16 16 17 16 15 10 15 22 14 15 17 21 20 18 19 19
7 5 4 7 9 9 10 12 14 13 15 13 13 14 14 14 18 19 19 20 21 21 19 20 19 18 18 15 8 16 18 18 20 21 18 18 21 21
6 6 7 8 10 11 10 11 11 11 9 8 7 7 7 7 7 10 12 18 22 24 25 24 19 18 17 20 22 23 21 22 24 25 27 26 24 8
8 8 8 10 12 11 11 12 11 10 11 12 14 12 9 10 11 13 15 18 21 22 22 27 27 23 22 21 21 23 23 24 27 29 31 27 26 25

GFSNE_925_spd_282.txt.gz
Wind_Speed
2 1 2 2 3 5 6 5 3 2 2 2 1 3 4 4 5 5 5 7 9 10 10 11 10 8 9 11 16 23 28 28 25 25 27 27 28 31
2 1 0 0 2 3 4 6 7 5 3 3 4 7 6 5 8 11 11 10 9 10 13 13 13 12 11 9 10 12 15 19 21 24 26 27 27 27
3 0 1 1 2 3 4 4 5 5 4 7 9 8 9 8 9 11 12 9 9 11 15 13 11 11 13 12 9 10 11 13 16 18 20 22 24 26
2 0 1 0 1 3 4 5 5 5 5 7 8 7 8 8 9 8 3 5 5 7 10 10 13 12 11 11 10 9 7 9 13 15 17 18 18 19
4 3 4 3 2 3 3 2 4 6 7 6 6 6 7 7 9 6 3 1 2 3 4 5 6 14 7 12 11 9 8 8 11 13 14 15 15 16
4 4 4 6 7 6 3 2 5 7 8 10 9 8 6 7 6 6 7 8 5 4 4 5 6 4 9 10 8 9 9 10 9 10 10 11 13 13
7 7 4 3 6 6 5 4 6 7 7 8 8 7 8 6 5 8 7 10 6 5 7 6 6 4 8 10 11 11 12 11 11 7 7 7 8 9
9 8 5 4 2 4 5 7 9 9 8 7 7 6 8 7 6 9 11 8 5 5 11 8 6 4 4 3 5 5 5 6 6 5 4 3 2 3
8 11 10 8 7 6 7 8 8 7 7 9 11 10 8 7 9 10 8 7 7 12 12 7 5 4 3 3 3 3 5 6 7 7 6 5 4 2
5 8 9 12 11 9 8 8 8 9 10 9 9 11 12 13 12 10 10 10 12 11 6 3 6 5 4 4 5 6 6 9 8 7 6 6 5 4
6 8 7 7 7 9 10 8 10 11 10 11 12 13 11 11 11 13 13 6 5 3 5 4 5 5 5 6 7 9 10 8 7 7 6 5 5 4
7 8 9 7 6 10 11 10 11 13 9 8 9 13 15 15 15 16 17 9 4 3 3 5 6 4 3 5 8 11 12 11 9 8 7 5 3 2
5 4 5 6 4 6 8 10 10 11 11 12 12 11 9 11 15 20 21 19 13 7 8 8 6 7 4 4 5 9 14 14 14 13 12 11 9 7
6 3 1 3 4 7 9 11 11 13 14 12 11 9 7 6 6 8 16 18 17 13 10 11 8 9 6 4 5 6 9 13 17 18 16 16 16 13
10 6 5 5 6 8 10 11 13 14 15 15 14 11 11 7 7 4 4 9 13 13 13 13 14 14 11 8 5 5 6 8 9 12 14 14 15 16
18 14 12 11 11 11 12 12 12 12 14 17 17 16 13 11 9 8 9 9 10 14 15 16 18 17 17 15 13 11 10 6 7 9 10 13 14 14
15 15 14 13 12 12 13 13 13 13 14 17 17 16 16 15 16 14 13 13 12 13 15 16 16 18 19 18 13 15 11 11 10 9 12 13 13 13
7 10 12 11 12 13 14 15 16 13 13 14 16 17 17 16 18 18 18 17 15 15 15 16 16 13 11 16 21 19 17 16 14 13 14 16 18 18
5 6 7 8 12 12 11 11 12 13 15 14 16 17 16 17 16 15 15 16 16 17 17 14 13 11 9 9 13 17 22 22 20 18 17 21 17 22
6 6 6 7 5 8 8 9 11 12 11 11 12 10 11 12 12 13 14 14 14 15 13 14 14 15 16 11 10 16 18 20 19 16 16 19 24 24
7 6 5 5 5 4 5 7 8 10 10 12 8 12 12 8 7 8 11 15 14 13 14 14 17 17 17 15 10 14 22 21 23 23 21 16 11 10
7 5 6 6 6 7 8 9 8 9 10 11 12 12 14 11 12 10 13 15 9 7 10 14 12 12 11 13 16 15 15 20 21 22 24 25 13 8
7 7 7 7 7 7 8 9 9 9 9 9 10 12 11 12 11 12 11 11 13 14 7 10 14 14 15 17 17 15 14 17 16 16 20 25 28 28

GFSNE_925_spd_285.txt.gz
Wind_Speed
1 1 1 0 0 2 4 4 4 4 4 2 1 4 6 6 7 5 4 4 5 6 7 8 9 9 9 11 16 23 27 28 27 28 32 32 30 30
2 2 2 2 1 1 1 2 4 6 5 3 4 6 7 8 8 9 8 10 9 8 8 10 11 12 12 12 10 13 17 25 31 32 30 29 29 29
3 1 1 1 2 3 3 3 3 4 8 8 7 8 7 7 8 10 10 9 8 9 11 15 13 11 11 13 15 12 14 15 17 21 25 26 28 28
4 2 2 1 1 2 4 5 6 5 7 7 7 6 6 6 7 7 6 5 4 7 10 12 9 11 13 12 13 13 11 12 13 16 19 21 21 20
3 3 2 3 3 4 4 4 5 6 7 9 10 7 7 6 8 6 4 3 4 6 7 7 6 7 11 9 11 13 12 12 12 13 15 17 19 19
4 4 3 3 5 4 4 3 3 5 5 7 9 9 7 6 6 6 5 4 4 5 7 7 6 6 5 8 9 10 12 12 12 13 14 14 15 16
5 5 3 3 4 5 4 4 5 6 6 7 7 7 7 7 6 6 8 8 6 3 6 5 5 5 4 10 12 13 13 15 15 14 12 12 13 13
8 8 8 7 4 3 5 6 7 6 6 6 6 6 6 7 5 7 8 9 6 2 7 9 6 6 3 3 9 11 12 12 11 10 9 9 9 10
7 8 9 9 8 6 7 7 6 6 6 6 7 7 8 7 7 8 6 8 9 10 10 9 5 7 4 5 5 5 4 5 4 5 5 5 3 2
8 8 9 10 10 8 8 7 6 7 6 8 9 9 9 8 8 10 10 11 12 9 5 8 5 6 5 4 6 5 5 5 4 5 5 4 3 2
8 9 9 7 9 11 9 8 7 8 11 12 11 13 14 12 10 10 11 10 9 5 4 5 5 7 6 5 6 7 8 8 9 9 7 6 4 2
7 8 9 10 8 7 8 6 7 8 9 10 10 11 11 14 16 15 13 12 9 7 3 4 5 4 4 2 4 6 10 12 11 11 10 8 6 4
5 6 4 6 7 7 8 6 7 9 10 10 11 11 9 8 10 12 14 17 15 11 5 3 4 6 6 6 4 5 8 9 12 12 14 12 11 9
6 5 4 3 5 6 7 7 10 12 11 11 12 11 8 7 7 8 9 14 16 16 9 7 7 6 7 10 10 6 6 7 12 14 13 16 19 17
9 8 7 5 6 7 8 9 12 10 10 11 11 11 10 10 11 10 8 7 10 13 13 13 11 9 9 11 10 9 6 8 9 10 13 15 15 15
16 13 12 10 10 10 11 9 9 10 10 12 14 13 11 11 10 9 9 9 9 12 12 14 14 12 13 13 13 12 10 8 6 10 11 12 13 14
10 8 9 10 10 9 9 8 9 10 12 12 13 15 13 12 13 13 13 12 13 14 14 11 10 13 14 14 15 15 14 12 10 12 9 13 12 13
3 5 6 7 7 7 7 8 8 9 10 11 12 13 14 14 14 14 15 16 19 18 17 15 12 11 13 17 20 18 16 15 13 12 12 12 15 16
2 0 1 3 4 6 6 5 5 7 10 8 10 12 12 13 14 17 17 17 18 18 19 17 14 13 9 11 14 15 18 15 15 16 16 16 16 17
6 6 4 3 2 3 4 5 7 9 8 8 8 7 9 9 11 11 17 20 20 19 18 17 17 17 17 13 17 16 11 15 17 17 18 17 17 18
7 6 6 6 5 4 5 5 6 6 7 8 7 9 10 9 9 12 11 10 10 13 17 17 11 10 13 14 16 21 21 22 20 19 18 18 18 17
6 5 5 5 4 4 4 4 4 5 6 6 7 8 8 8 10 11 10 11 12 11 12 11 9 9 7 9 14 20 21 18 18 21 22 23 18 15
4 3 3 3 3 3 3 4 6 7 7 8 8 9 9 10 8 8 8 7 8 9 11 12 14 5 7 12 17 17 21 20 17 21 21 22 24 28

GFSNE_925_spd_288.txt.gz
Wind_Speed
4 3 5 4 5 5 5 5 6 6 3 5 3 2 2 1 2 2 4 5 4 4 4 5 6 8 11 16 19 22 27 30 32 36 39 39 39 37
4 3 3 1 2 3 4 4 5 7 6 2 4 4 6 7 4 5 5 9 10 6 6 6 8 10 12 14 13 15 20 28 33 35 36 34 36 36
3 2 1 2 2 2 4 4 5 5 7 7 5 5 8 6 8 9 10 9 11 9 9 9 11 11 12 14 14 16 15 17 24 33 33 33 32 32
4 2 2 1 1 1 3 3 3 5 8 7 8 8 6 6 6 7 7 9 6 5 9 9 9 8 10 12 13 14 16 14 14 16 20 22 26 30
4 3 3 3 3 3 4 4 3 4 6 9 10 9 8 8 6 7 6 6 8 7 7 8 8 5 6 11 14 12 14 15 14 14 15 16 19 22
4 4 4 4 4 4 4 4 3 5 4 8 8 8 7 5 7 7 7 4 6 8 6 7 8 9 8 6 8 10 11 12 13 15 15 16 17 18
6 5 6 6 5 4 5 2 5 6 6 8 8 7 6 6 6 6 8 8 9 7 7 8 8 10 6 8 9 12 13 14 15 16 15 15 15 15
8 7 7 7 6 6 4 4 3 4 5 6 8 7 5 7 6 7 8 7 8 3 5 11 11 12 11 8 10 13 14 16 16 15 15 14 13 12
8 6 8 9 9 7 6 6 6 5 5 4 7 8 8 6 7 9 8 9 10 10 11 11 11 9 9 10 12 9 9 8 7 8 8 8 7 7
8 7 8 8 8 8 8 9 8 7 7 7 9 10 10 8 7 9 10 12 14 14 5 10 9 8 6 7 10 7 6 6 6 6 7 7 6 5
10 8 8 8 10 11 11 10 9 9 8 8 10 9 12 13 13 10 11 11 11 7 3 7 10 7 10 10 9 8 9 10 10 9 8 7 6 5
9 9 10 10 12 7 8 8 9 8 7 7 7 8 11 11 11 13 12 13 12 12 4 4 6 5 10 8 6 6 8 12 12 12 12 11 10 7
9 6 5 7 10 10 9 8 8 6 9 10 8 7 7 7 7 9 11 14 15 14 3 3 9 9 9 13 12 9 9 11 13 15 16 16 15 13
4 6 3 6 5 7 7 10 11 9 10 10 10 9 8 7 7 7 8 11 14 18 12 9 10 11 12 14 13 13 11 13 14 16 16 18 20 19
9 8 7 6 7 9 9 11 11 10 10 11 11 11 10 9 10 11 12 12 13 14 16 17 15 14 12 15 15 14 12 14 16 16 17 19 19 17
20 16 13 11 9 11 9 11 11 10 10 13 14 14 13 13 13 12 13 12 14 14 14 15 16 15 17 18 17 17 16 15 13 15 17 19 18 19
13 10 8 9 11 13 12 11 10 10 10 12 13 14 14 14 15 14 15 16 16 16 16 15 17 16 17 18 19 20 17 18 17 16 13 17 19 20
6 8 10 11 10 7 4 6 8 8 7 8 12 12 14 14 14 15 16 18 19 20 20 18 15 16 16 20 22 22 21 20 18 16 15 17 17 18
1 1 1 2 3 3 4 5 6 6 10 8 11 11 12 12 15 15 16 19 18 18 20 20 17 18 12 12 17 23 18 17 18 18 19 18 18 17
4 3 3 2 2 1 1 2 3 4 4 5 4 6 7 9 10 10 11 12 15 18 20 20 15 16 17 14 16 15 22 15 16 19 19 20 21 17
2 2 2 2 1 1 2 3 4 5 6 6 6 6 7 8 9 10 10 10 11 10 13 16 15 16 17 18 16 18 10 9 20 22 22 21 21 21
5 4 5 5 5 5 5 5 6 6 6 8 8 9 9 11 11 11 10 11 10 10 12 18 20 17 11 15 9 12 22 23 21 17 23 27 23 17
6 7 7 6 6 6 6 8 10 10 11 11 11 12 12 13 13 14 14 14 14 12 12 12 11 11 10 12 13 13 16 22 22 22 26 24 20 25

GFSNE_925_spd_291.txt.gz
Wind_Speed
4 4 5 4 5 4 4 4 6 6 4 8 2 2 1 1 2 3 4 8 5 6 7 8 9 10 13 19 26 29 29 32 33 36 36 41 44 36
5 0 4 4 3 2 3 3 4 7 6 6 2 4 4 6 4 4 6 7 12 10 8 8 9 10 12 15 17 20 23 26 30 34 35 38 40 39
4 2 3 3 5 3 3 3 4 5 7 9 5 4 2 5 8 8 10 15 16 19 13 11 9 10 12 17 18 19 18 19 24 28 34 36 38 37
7 5 5 4 2 3 4 1 5 5 6 6 9 10 6 4 8 7 10 11 6 16 11 10 8 8 9 12 14 17 17 20 19 21 25 30 32 35
8 7 6 5 4 4 4 4 3 3 5 7 9 8 7 8 7 9 10 9 10 14 12 10 8 7 6 9 14 16 17 16 17 16 17 18 22 25
8 7 6 6 5 4 5 3 4 3 5 7 9 7 7 4 6 9 9 9 8 8 6 8 9 11 11 10 9 10 14 15 15 14 14 14 17 18
8 7 8 8 7 5 5 2 2 6 6 6 8 8 6 4 8 8 6 9 9 9 11 8 9 12 13 13 10 10 11 13 14 15 15 16 17 18
10 9 8 8 9 6 6 5 3 4 5 6 7 8 6 5 8 9 8 10 6 4 3 11 14 15 11 13 12 8 8 14 16 17 17 18 18 16
10 8 9 11 11 7 7 6 7 6 6 7 6 7 8 8 9 9 9 8 9 11 10 13 12 16 12 11 5 5 10 13 14 15 14 15 15 14
9 6 8 7 6 7 9 10 9 9 10 7 7 10 11 9 8 9 11 12 14 17 13 10 10 15 9 8 10 12 10 10 10 10 9 9 11 10
10 8 5 9 10 9 10 11 12 9 8 10 10 10 10 12 14 11 12 15 15 12 10 7 8 12 9 10 8 8 7 9 10 10 9 10 9 9
8 9 5 7 10 8 8 8 11 10 10 9 10 11 11 11 9 10 13 13 13 13 2 5 6 6 7 13 11 6 7 9 12 14 14 13 12 11
2 3 1 4 7 13 14 10 8 6 7 12 14 12 9 9 10 12 10 11 12 15 1 5 8 11 11 13 10 9 11 11 11 14 17 17 16 15
8 10 10 9 12 8 12 10 10 10 9 14 14 12 10 9 8 7 8 10 13 14 17 12 10 11 13 14 14 13 13 12 11 13 15 17 20 20
3 1 2 7 12 17 14 13 11 8 11 12 13 14 12 12 11 13 12 18 16 17 17 16 15 16 17 17 15 16 16 16 12 13 15 18 19 17
4 9 14 17 17 17 16 12 14 11 12 12 15 15 15 15 14 15 15 15 15 15 16 16 17 15 15 17 18 18 18 16 17 15 17 15 17 20
13 14 15 16 15 17 16 14 14 11 7 8 12 15 14 15 15 14 15 16 16 15 16 14 20 21 19 18 17 18 19 19 18 18 16 16 18 19
9 10 9 14 14 11 4 5 5 6 6 8 12 12 13 14 14 18 18 16 15 15 17 16 16 18 20 21 22 21 20 19 20 19 18 17 17 18
4 7 7 6 4 4 5 4 5 5 11 9 10 11 12 12 14 15 16 16 17 16 16 17 14 11 3 8 19 26 27 23 17 17 20 18 19 19
2 2 3 4 4 4 4 5 6 5 6 8 8 9 10 10 11 10 12 13 14 17 19 17 8 6 4 4 7 23 14 27 20 10 9 11 17 20
7 5 6 7 7 5 6 7 7 9 7 9 10 10 10 12 13 14 13 11 9 14 15 17 14 18 15 15 12 16 21 6 10 17 17 11 14 17
7 7 5 6 7 7 7 7 9 9 10 10 10 11 13 12 14 15 16 17 17 17 14 15 15 13 11 11 15 17 17 15 18 21 18 11 4 7
8 7 9 9 9 9 9 11 13 14 14 14 15 16 15 15 16 18 18 19 18 18 18 19 18 10 12 12 13 13 14 16 18 18 22 23 18 20

GFSNE_925_spd_297.txt.gz
Wind_Speed
6 6 6 3 2 2 3 3 4 1 2 8 4 15 15 11 10 8 6 8 6 8 9 11 14 16 20 29 30 32 33 39 43 42 40 40 40 41
6 6 7 5 1 2 3 0 0 3 1 7 11 14 12 9 7 5 7 6 8 11 12 12 13 16 19 24 28 30 32 34 36 39 41 43 44 44
9 6 7 8 5 2 2 2 4 3 2 2 5 3 1 1 3 6 2 6 11 12 15 18 17 18 19 21 23 26 29 31 33 35 37 37 38 39
11 10 8 6 4 2 1 1 2 2 1 2 2 3 4 4 6 5 8 8 13 9 14 27 22 20 20 19 21 24 26 27 28 30 32 33 35 36
12 12 10 7 6 3 2 3 3 2 2 3 5 8 6 6 7 7 10 14 16 13 18 13 24 20 19 19 20 20 20 22 24 25 25 26 29 31
14 13 13 11 10 7 4 3 4 3 3 8 8 12 9 6 6 3 4 6 12 12 13 16 19 18 14 19 18 17 17 18 21 24 25 25 26 27
16 15 14 12 9 11 9 4 4 4 2 3 5 7 9 10 9 7 5 8 6 4 6 10 17 20 19 17 20 21 20 19 20 22 24 23 21 20
21 17 16 11 13 13 11 8 7 7 5 3 1 2 5 7 9 8 8 7 5 0 8 6 6 7 12 12 14 16 21 18 15 15 16 19 20 19
22 19 17 16 15 14 9 6 4 5 5 4 5 3 1 8 12 12 7 7 9 16 17 17 17 17 15 13 13 16 18 18 15 14 17 20 20 21
28 24 20 15 18 14 12 9 4 5 9 8 5 3 5 10 11 12 12 14 17 17 11 9 19 19 12 13 15 15 17 15 14 13 16 19 21 21
19 16 15 17 15 11 11 7 4 5 5 10 8 7 8 9 11 13 12 12 9 10 10 9 14 17 13 7 3 7 13 14 13 11 13 15 15 14
27 31 28 23 18 17 12 12 15 17 12 2 3 9 11 14 17 20 15 11 8 6 8 9 10 11 4 2 4 6 14 15 14 12 12 13 14 14
22 24 21 13 19 16 14 15 14 11 11 11 11 14 15 20 18 13 17 16 14 11 11 9 8 14 5 5 5 5 8 12 12 14 16 15 16 17
19 17 16 13 12 8 6 6 1 4 7 8 8 11 16 18 18 14 9 9 17 18 17 18 14 17 16 14 9 10 11 10 6 7 11 17 18 19
8 7 6 4 6 4 4 15 13 14 12 10 10 8 11 13 14 15 15 14 14 21 24 24 24 20 16 15 14 18 20 16 14 12 11 15 18 19
9 6 3 2 4 8 12 13 12 13 11 13 10 12 12 13 15 17 19 19 20 16 13 13 12 13 16 17 17 18 18 14 19 18 18 16 16 20
7 5 5 5 7 8 8 7 8 10 6 6 4 8 12 14 15 13 13 14 11 12 14 14 13 12 11 12 18 21 23 22 21 21 22 22 21 19
6 5 5 3 4 5 6 8 7 6 6 8 9 7 7 7 8 9 8 7 6 8 14 17 16 17 16 5 7 11 10 12 15 15 15 15 17 14
8 8 6 6 6 9 9 10 8 7 7 5 7 8 8 9 10 12 12 11 9 8 10 11 8 10 3 3 9 11 15 22 22 21 18 13 10 13
15 11 11 12 10 9 7 7 7 8 10 8 9 9 11 9 8 10 10 12 8 10 10 12 10 10 5 3 5 19 17 16 17 17 17 16 16 17
11 10 10 12 8 10 9 8 9 12 13 12 13 12 9 9 10 11 12 12 14 16 16 19 19 16 14 11 7 17 20 18 14 17 18 16 17 11
5 4 6 9 10 10 10 7 10 13 10 10 8 8 9 9 9 10 11 11 11 10 11 14 18 15 15 13 18 20 23 24 23 22 19 19 17 5
7 5 7 8 10 11 12 11 11 7 10 9 11 9 8 10 11 11 11 13 15 15 14 16 18 19 18 20 15 13 14 21 24 26 23 22 20 21